Bullsbrook Pearce Amo, Australia

12:05 PM AWST on December 03, 2016 (GMT +0800)
Pearce (Military)

Weather History for YPEA - July, 2013

Change the Weather History Date:

Thursday, July 18, 2013

  Actual Average (YPPH) Record (YPPH)
Temperature  
Mean Temperature 45 °F -  
Max Temperature 60 °F 63 °F 75 °F (2007)
Min Temperature 30 °F 45 °F 31 °F (2013)
Degree Days  
Heating Degree Days 20    
Moisture  
Dew Point 37 °F    
Average Humidity 75    
Maximum Humidity 93    
Minimum Humidity 37    
Precipitation  
Precipitation 0.00 in - - ()
Sea Level Pressure  
Sea Level Pressure 30.28 in    
Wind  
Wind Speed 3 mph ()    
Max Wind Speed 13 mph    
Max Gust Speed -    
Visibility 7.5 miles    
Events      
Averages and records for this station are not official NWS values.
T = Trace of Precipitation, MM = Missing Value Source: Averaged Metar Reports

Daily Weather History Graph

Daily Weather History Graph

Search for Another Location

Airport or City:

Trip Planner

Search our weather history database for the weather conditions in past years. The results will help you decide how hot, cold, wet, or windy it might be!

Date:

Astronomy

Jul. 18, 2013 Rise Set
Actual Time 7:12 AM AWST 5:31 PM AWST
Civil Twilight 6:46 AM AWST 5:58 PM AWST
Nautical Twilight 6:16 AM AWST 6:27 PM AWST
Astronomical Twilight 5:47 AM AWST 6:57 PM AWST
Moon 1:08 PM AWST (7/18) 2:08 AM AWST (7/18)
Length of Visible Light 11h 11m
Length of Day
10h 19m
Waxing Gibbous, 72% of the Moon is Illuminated
Jul 18
Waxing Gibbous
Jul 23
Full
Jul 30
Last Quarter
Aug 7
New
Aug 14
First Quarter

Hourly Weather History & Observations

Time (AWST) Temp. Windchill Dew Point Humidity Pressure Visibility Wind Dir Wind Speed Gust Speed Precip Events Conditions
12:00 AM 40 °F - 37 °F 84% 30.25 in - Calm Calm - -  
12:00 AM 39.2 °F - 37.4 °F 93% 30.24 in 6.2 mi Calm Calm - N/A   Unknown
1:00 AM 37.4 °F - 33.8 °F 87% 30.21 in 6.2 mi Calm Calm - N/A   Unknown
2:00 AM 37.4 °F 34.9 °F 33.8 °F 87% 30.24 in 6.2 mi SE 3.5 mph - N/A   Unknown
3:00 AM 35 °F - 33 °F 89% 30.25 in - Calm Calm - -  
3:00 AM 35.6 °F - 33.8 °F 93% 30.24 in 6.2 mi Calm Calm - N/A   Unknown
4:00 AM 33.8 °F - 32.0 °F 93% 30.24 in 6.2 mi Calm Calm - N/A   Unknown
5:00 AM 33.8 °F - 32.0 °F 93% 30.24 in 6.2 mi Calm Calm - N/A   Unknown
6:00 AM 33 °F - 31 °F 89% 30.26 in - SW 2.3 mph - -  
6:00 AM 32.0 °F - 30.2 °F 93% 30.24 in - SW 2.3 mph - N/A   Clear
7:00 AM 32.0 °F 28.7 °F 30.2 °F 93% 30.27 in - SW 3.5 mph - N/A   Clear
8:00 AM 33.8 °F 29.6 °F 32.0 °F 93% 30.27 in - SW 4.6 mph - N/A   Clear
8:59 AM 42.8 °F - 39.2 °F 87% 30.30 in - NNW 2.3 mph - N/A   Clear
9:00 AM 43 °F - 40 °F 85% 30.32 in 19 mi NNW 2.3 mph - -   Partly Cloudy
10:00 AM 48.2 °F - 42.8 °F 82% 30.33 in - SSW 3.5 mph - N/A   Clear
11:00 AM 53.6 °F - 42.8 °F 67% 30.33 in 6.2 mi SSW 4.6 mph - N/A   Scattered Clouds
12:00 PM 56 °F - 38 °F 40% 30.31 in - SE 12.7 mph - -  
12:00 PM 55.4 °F - 39.2 °F 54% 30.30 in 6.2 mi SE 12.7 mph - N/A   Scattered Clouds
1:00 PM 57.2 °F - 37.4 °F 48% 30.27 in 6.2 mi South 9.2 mph - N/A   Partly Cloudy
2:00 PM 57.2 °F - 39.2 °F 51% 30.27 in 6.2 mi East 8.1 mph - N/A   Scattered Clouds
3:00 PM 59 °F - 40 °F 37% 30.27 in 19 mi South 10.4 mph - -   Partly Cloudy
3:00 PM 59.0 °F - 39.2 °F 48% 30.27 in 6.2 mi South 10.4 mph - N/A   Scattered Clouds
4:00 PM 59.0 °F - 41.0 °F 51% 30.27 in 6.2 mi South 8.1 mph - N/A   Scattered Clouds
5:00 PM 55.4 °F - 39.2 °F 54% 30.27 in 6.2 mi South 8.1 mph - N/A   Scattered Clouds
6:00 PM 54 °F - 40 °F 49% 30.30 in - South 4.6 mph - -  
6:00 PM 53.6 °F - 41.0 °F 62% 30.30 in 6.2 mi South 4.6 mph - N/A   Partly Cloudy
7:00 PM 50.0 °F - 39.2 °F 66% 30.30 in 6.2 mi ENE 2.3 mph - N/A   Partly Cloudy
8:00 PM 44.6 °F - 37.4 °F 76% 30.33 in - ENE 1.2 mph - N/A   Clear
9:00 PM 43 °F - 40 °F 84% 30.35 in - North 3.5 mph - -  
9:00 PM 42.8 °F 41.1 °F 39.2 °F 87% 30.33 in 6.2 mi North 3.5 mph - N/A   Unknown
10:00 PM 44.6 °F - 41.0 °F 87% 30.36 in 6.2 mi ENE 2.3 mph - N/A   Unknown
11:00 PM 39.2 °F - 35.6 °F 87% 30.36 in 6.2 mi Calm Calm - N/A   Unknown